AirNav   Jet Aviation Boston
 
 441 users online  

UT00 Swains Creek Airport
Alton, Utah, USA

GOING TO ALTON?


FAA INFORMATION EFFECTIVE 19 JULY 2018

Location

FAA Identifier: UT00
Lat/Long: 37-28-19.9310N / 112-37-19.7650W
37-28.332183N / 112-37.329417W
37.4722031 / -112.6221569
(estimated)
Elevation: 7780 ft. / 2371 m (estimated)
Variation: 14E (1985)
From city: 7 miles NW of ALTON, UT
Time zone: UTC -6 (UTC -7 during Standard Time)
Zip code: 84762

Airport Operations

Airport use: Private use. Permission required prior to landing
Activation date: 03/1973
Control tower: no
ARTCC: SALT LAKE CITY CENTER
FSS: CEDAR CITY FLIGHT SERVICE STATION
Attendance: UNATNDD
Wind indicator: yes
Segmented circle: no

Nearby radio navigation aids

VOR radial/distance  VOR name  Freq  Var
BCEr214/20.0BRYCE CANYON VORTAC112.8015E
EHKr116/28.4ENOCH VOR/DME117.3016E

 
NDB name  Hdg/Dist  Freq  Var  ID
COLORADO CITY018/35.940313EAZC .- --.. -.-.

Airport Services

Airframe service: NONE
Powerplant service: NONE

Runway Information

Runway 1/19

Dimensions: 5600 x 50 ft. / 1707 x 15 m
Surface: dirt, in good condition
RUNWAY 1  RUNWAY 19
Traffic pattern: rightleft
Obstructions: 200 ft. trees, 1200 ft. from runway, 8:1 slope to clear
+150' TREES 100' LEFT OF CNTRLN EXTNDD.
15 ft. road, 25 ft. from runway, 2:1 slope to clear

Airport Ownership and Management from official FAA records

Ownership: Privately-owned
Owner: SWAINS CREEK PINES LOT OWNERS
107 S 1470 E SUITE - COMM ASSOC MAN
ST GEORGE, UT 84790
Phone (435) 674-2002
Manager: CLINT MALBURG
5213 COLD RIVER AVE
LAS VEGAS, NV 89130-2928
Phone (435) 674-2002

Airport Operational Statistics

Aircraft operations: avg 37/week
92% transient general aviation
8% local general aviation

Additional Remarks

RWY COND: GOOD; TAKEOFF TO NORTH & LAND TO SOUTH ADVISABLE DUE TO RWY GRADIENT AND TERRAIN RISE TO SOUTH.

Instrument Procedures

There are no published instrument procedures at UT00.

Some nearby airports with instrument procedures:

U55 - Panguitch Municipal Airport (25 nm NE)
KCDC - Cedar City Regional Airport (26 nm NW)
KBCE - Bryce Canyon Airport (27 nm NE)
KKNB - Kanab Municipal Airport (28 nm S)
KAZC - Colorado City Municipal Airport (36 nm SW)
 
Loc | Ops | Rwys | IFR | FBO | Links
Com | Nav | Svcs | Stats | Notes


 
Area around UT00 (Swains Creek Airport)
 
Road maps at: MapQuest Bing Google
 
Aerial photo
No photo
 
Sectional chart

 
Airport distance calculator
Flying to Swains Creek Airport? Find the distance to fly.

From to UT00

Sunrise and sunset
Times for 23-Jul-2018
 Local
(UTC-6)
 Zulu
(UTC)
Morning civil twilight05:5911:59
Sunrise06:2812:28
Sunset20:4502:45
Evening civil twilight21:1503:15

Current date and time
Zulu (UTC)  23-Jul-2018 06:30:31
Local (UTC-6)  23-Jul-2018 00:30:31
 
METAR
KBCE 
26nm NE 
230353Z AUTO 35005KT 10SM CLR 19/12 A3043 RMK AO2 SLP169 T01940117
KCDC 
27nm NW 
230553Z AUTO 00000KT 10SM CLR 24/11 A3027 RMK AO2 SLP161 T02440111 10306 20222 51013
KAZC 
36nm SW 
230615Z AUTO 00000KT 10SM CLR 22/16 A3025 RMK AO2
TAF
KBCE 
26nm NE 
230541Z 2306/2406 04008KT P6SM SKC FM230800 27010KT P6SM SKC FM231700 32008KT P6SM FEW120 FM240200 19005KT P6SM SKC
KCDC 
27nm NW 
230541Z 2306/2406 VRB04KT P6SM BKN090 FM231800 01007KT P6SM FEW120 FM240200 VRB04KT P6SM FEW120
NOTAMs
Click for the latest NOTAMs
NOTAMs are issued by the DoD/FAA and will open in a separate window not controlled by AirNav.

 

 
 

Would you like to see your business listed on this page?

 If your business provides an interesting product or service to pilots, flight crews, aircraft, or users of the Swains Creek Airport, you should consider listing it here.  To start the listing process, click on the button below
 
Add a business
 

Other Pages about Swains Creek Airport

Update a link
 
Copyright © AirNav, LLC. All rights reserved. Privacy Policy  Contact